Kuchera_Ratio
0.0 0.0 0.0 0.0 0.0 0.0 0.0 0.0 0.0 0.0 0.0 0.0 0.0 0.0 0.0 0.0 0.0 0.0 0.0 0.0 0.0 0.0 0.0 0.0 0.0 0.0 0.0 0.0 0.0 0.0 0.0 0.0 0.0 0.0 0.0 0.0 0.0 0.0 0.0 0.0 0.0 0.0 0.0 0.0
0.0 0.0 0.0 0.0 0.0 0.0 0.0 0.0 0.0 0.0 0.0 0.0 0.0 0.0 0.0 0.0 0.0 0.0 0.0 0.0 0.0 0.0 0.0 0.0 0.0 0.0 0.0 0.0 0.0 0.0 0.0 0.0 0.0 0.0 0.0 0.0 0.0 0.0 0.0 0.0 0.0 0.0 0.0 0.0
0.0 0.0 0.0 0.0 0.0 0.0 0.0 0.0 0.0 0.0 0.0 0.0 0.0 0.0 0.0 0.0 0.0 0.0 0.0 0.0 0.0 0.0 0.0 0.0 0.0 0.0 0.0 0.0 0.0 0.0 0.0 0.0 0.0 0.0 0.0 0.0 0.0 0.0 0.0 0.0 0.0 0.0 0.0 0.0
0.0 0.0 10.9 0.0 0.0 0.0 0.0 0.0 0.0 0.0 0.0 0.0 0.0 0.0 0.0 0.0 0.0 0.0 0.0 0.0 0.0 0.0 0.0 0.0 0.0 0.0 0.0 0.0 0.0 0.0 0.0 0.0 0.0 0.0 0.0 0.0 0.0 0.0 0.0 0.0 0.0 0.0 0.0 0.0
1.3 1.4 0.0 0.0 0.0 0.0 0.0 0.0 0.0 0.0 0.0 0.0 0.0 0.0 0.0 0.0 0.0 0.0 0.0 0.0 0.0 0.0 0.0 0.0 0.0 0.0 0.0 0.0 0.0 0.0 0.0 0.0 0.0 0.0 0.0 0.0 0.0 0.0 0.0 0.0 0.0 0.0 0.0 0.0
2.4 2.4 11.2 0.0 0.0 0.0 0.0 0.0 0.0 0.0 0.0 0.0 0.0 0.0 0.0 0.0 0.0 0.0 0.0 0.0 0.0 0.0 0.0 0.0 0.0 0.0 0.0 0.0 0.0 0.0 0.0 0.0 0.0 0.0 0.0 0.0 0.0 0.0 0.0 0.0 0.0 0.0 0.0 0.0
2.1 2.8 0.0 0.0 0.0 0.0 0.0 0.0 0.0 0.0 0.0 0.0 0.0 0.0 0.0 0.0 0.0 0.0 0.0 0.0 0.0 0.0 0.0 0.0 0.0 0.0 0.0 0.0 0.0 0.0 0.0 0.0 0.0 0.0 0.0 0.0 0.0 0.0 0.0 0.0 0.0 0.0 0.0 0.0
4.2 4.6 4.4 0.0 0.0 0.0 0.0 0.0 0.0 0.0 0.0 0.0 0.0 0.0 0.0 0.0 0.0 0.0 0.0 0.0 0.0 0.0 0.0 0.0 0.0 0.0 0.0 0.0 0.0 0.0 0.0 0.0 0.0 0.0 0.0 0.0 0.0 0.0 0.0 0.0 1.1 1.7 2.1 1.5
0.0 0.0 0.0 0.0 0.0 0.0 0.0 0.0 0.0 0.0 0.0 0.0 0.0 0.0 0.0 0.0 0.0 0.0 0.0 0.0 0.0 0.0 0.0 0.0 0.0 0.0 0.0 0.0 0.0 0.0 0.0 0.0 0.0 0.0 0.0 0.0 0.2 0.3 1.6 1.6 3.7 4.1 4.0 4.0
0.0 0.0 0.0 0.0 0.0 0.0 0.0 0.0 0.0 0.0 0.0 0.0 0.0 0.0 0.0 0.0 0.0 0.0 0.0 0.0 0.0 0.0 0.0 0.0 0.0 0.0 0.0 0.0 0.0 0.0 0.0 0.0 0.0 0.4 0.5 0.4 1.0 1.4 2.9 3.4 5.1 5.2 5.3 5.7
0.0 0.0 0.0 0.0 0.0 0.0 0.0 0.0 0.0 0.0 0.0 0.0 0.0 0.0 0.0 0.6 0.0 0.0 0.0 0.0 0.0 0.0 0.6 0.2 0.0 0.0 0.0 0.0 0.0 0.0 0.0 0.3 0.8 1.2 1.7 2.4 2.0 2.5 2.8 2.3 2.9 5.9 5.2 5.5
0.0 0.0 0.0 0.0 0.0 0.0 0.0 0.0 0.0 0.0 0.0 0.0 0.0 0.7 2.4 4.2 2.9 2.2 1.2 0.0 1.3 1.1 1.1 1.0 0.3 0.5 1.1 1.2 1.4 2.2 3.4 3.5 3.7 4.1 3.6 3.8 4.2 4.5 3.1 2.5 2.3 2.9 3.2 3.4
0.0 0.0 0.0 0.0 0.0 0.0 0.0 0.0 0.0 0.0 0.0 0.9 2.6 3.0 4.0 4.7 3.4 2.4 1.8 1.9 2.9 3.8 3.9 3.9 4.8 5.6 4.4 4.8 4.1 4.1 5.7 5.5 6.0 6.8 8.3 8.4 8.2 8.8 10.0 4.6 4.4 4.0 3.8 3.8
0.0 0.0 0.0 0.0 0.0 0.0 0.0 0.0 0.0 1.6 2.2 3.2 3.8 3.4 3.4 4.4 4.9 5.8 6.4 5.1 5.0 6.0 7.0 8.0 8.8 8.2 5.6 5.2 6.4 7.0 7.3 7.7 9.1 10.7 10.6 9.4 7.6 7.4 7.2 8.6 9.6 7.6 5.2 6.4
0.0 0.0 0.0 0.0 0.0 1.2 0.4 0.8 3.4 5.4 5.6 5.8 3.8 4.1 4.6 6.2 7.8 8.6 8.2 7.4 7.5 8.6 8.4 6.0 6.4 8.6 6.2 6.6 7.2 8.6 9.0 10.6 10.8 11.8 11.6 11.4 10.2 9.6 7.4 7.2 8.2 7.6 7.2 10.7
0.0 0.0 0.0 0.0 2.0 2.8 2.4 4.0 6.6 8.2 6.8 6.6 7.2 7.0 6.0 6.4 8.0 9.0 8.8 9.8 10.7 11.7 8.4 11.4 11.8 10.6 9.8 8.4 10.4 10.8 11.4 12.6 13.0 12.2 12.4 12.5 12.3 12.3 11.8 10.4 8.8 9.0 9.6 12.2
0.0 2.9 3.5 4.5 3.4 2.2 3.4 3.2 4.2 6.6 8.6 9.0 10.0 9.2 8.6 9.5 10.6 10.9 11.0 11.6 13.0 12.6 12.1 13.0 13.4 11.4 11.6 12.4 13.4 14.1 14.5 14.0 14.4 13.4 13.6 13.3 13.3 13.5 13.2 12.6 12.0 9.6 9.2 10.6
0.0 0.0 0.0 0.0 2.4 3.8 4.4 5.4 7.0 9.3 10.1 9.0 10.4 10.0 10.4 11.6 12.3 12.6 13.0 13.9 14.3 14.8 13.4 12.8 13.5 13.6 13.7 13.8 14.5 15.0 15.5 15.3 14.7 14.5 13.9 14.9 14.5 13.2 13.0 12.6 11.4 11.6 11.0 12.0
0.0 0.0 0.0 0.0 0.0 2.8 5.6 9.0 9.6 9.6 10.4 11.6 11.4 12.2 12.5 12.8 12.9 13.6 14.2 14.8 15.3 16.1 14.7 13.6 14.2 15.1 15.1 15.4 16.0 15.8 16.6 17.3 17.4 17.0 17.2 17.2 16.4 15.1 15.2 15.6 14.3 13.2 13.1 13.8
0.0 0.0 0.0 1.6 3.0 6.1 9.6 10.6 10.4 11.2 12.0 12.3 12.8 13.1 13.5 13.8 13.8 14.8 15.5 16.1 15.7 15.2 13.8 14.6 15.3 16.2 16.0 16.6 18.5 17.3 19.4 19.0 19.9 20.3 20.2 19.8 19.2 18.8 17.7 17.5 17.5 17.3 17.3 17.1
3.6 4.8 7.0 7.8 8.8 8.2 9.6 11.2 11.8 12.5 13.1 13.3 13.3 14.0 14.3 14.7 15.0 15.0 16.7 16.5 15.2 15.7 14.9 16.2 17.0 17.7 17.2 19.7 18.7 20.7 22.1 21.7 22.7 22.6 22.3 22.0 21.6 20.8 20.6 20.4 20.0 19.7 19.3 18.9
5.8 8.6 10.0 9.6 10.0 11.2 10.4 10.4 12.1 13.4 13.8 14.2 14.6 15.1 15.4 15.6 16.8 17.3 17.1 16.8 15.3 18.5 17.8 17.1 17.8 21.2 20.7 22.0 20.1 23.3 22.1 22.0 23.4 23.9 23.6 23.5 23.4 22.9 22.9 22.4 22.3 21.4 20.7 20.4
7.6 8.2 9.4 10.8 11.8 11.4 11.6 12.7 13.5 14.0 14.7 15.0 15.5 15.8 15.9 15.7 16.5 18.1 19.1 15.7 16.4 19.2 18.0 20.5 21.2 21.7 22.3 22.8 23.3 23.8 24.5 25.0 25.4 25.5 25.1 25.4 24.8 24.3 24.3 24.0 23.4 22.9 22.3 21.8
7.6 7.8 9.0 9.0 11.0 12.1 13.0 12.7 12.1 13.6 14.6 15.3 15.3 15.1 15.7 17.7 17.6 17.0 17.3 18.9 19.5 20.0 20.6 21.2 21.8 22.4 22.9 23.4 23.8 24.4 25.2 25.7 25.9 26.3 27.1 27.5 26.3 26.5 26.3 25.5 24.9 23.8 23.4 23.3
7.6 8.2 9.4 11.0 11.2 12.4 12.0 12.1 13.0 13.1 14.2 14.5 15.2 15.3 15.8 16.4 17.2 19.1 19.5 20.0 20.4 21.0 21.5 22.1 22.6 23.2 23.6 24.1 24.5 25.1 25.8 26.2 26.6 27.4 27.9 28.0 28.2 28.3 28.0 26.8 26.6 25.2 24.7 24.5
9.4 11.6 12.1 12.1 13.2 13.2 13.6 14.1 16.0 16.0 16.9 17.9 17.2 17.6 17.9 18.6 19.2 19.9 20.4 20.9 21.4 21.9 22.4 23.0 23.4 24.0 24.2 24.8 25.1 25.8 26.3 26.8 27.3 28.2 28.3 28.5 28.8 28.9 29.0 28.6 28.1 27.0 26.5 25.5
12.9 13.6 13.9 14.4 14.0 14.7 15.5 16.6 17.7 18.5 17.8 17.6 18.7 18.6 18.9 19.6 20.5 21.1 21.6 21.9 22.5 22.8 23.2 23.9 24.3 24.8 25.1 25.5 25.9 26.5 26.9 27.4 28.0 28.7 28.9 29.2 29.4 29.4 29.4 29.0 28.7 27.6 27.0 26.6